Date String (YYYY-MM-DD hh:mm:ss) UTC,Instrument flags,Ambient pressure (hPa),Sample flow (lpm),Bypass flow (lpm),Sample temperature (°C),Ambient temperature (°C),ASC tube jacket temperature (°C),LED temperature (°C),Box temperature (°C),Sample RH (%),Span deviation,Mass concentration (μg/m³),Mass concentration (μg/m³),Mass concentration (μg/m³)
DateTimeUTC,F1_M11,P_M11,Q1_M11,Q2_M11,T1_M11,T2_M11,T3_M11,T4_M11,T5_M11,U1_M11,ZSPAN_M11,X0_M11,X2_M11,X1_M11
2021-08-20 03:00:00,,0824.4,5.01,0.00,29.9,28.8,00.0,38.8,31.7,23.3,0000.0,0003.41,0002.32,0001.90
2021-08-20 03:01:00,,0824.4,5.00,0.00,29.9,28.9,00.0,38.9,31.7,23.9,0000.0,0003.43,0002.33,0001.91
2021-08-20 03:02:00,,0824.5,5.00,0.00,29.9,28.9,00.0,38.9,31.7,23.6,0000.0,0003.47,0002.36,0001.92
2021-08-20 03:03:00,,0824.4,4.99,0.00,29.9,28.5,00.0,38.9,31.6,24.4,0000.0,0003.54,0002.40,0001.94
2021-08-20 03:04:00,,0824.4,5.00,0.00,29.8,26.7,00.0,38.9,31.1,23.1,0000.0,0003.49,0002.39,0001.96
2021-08-20 03:05:00,,0824.4,5.00,0.00,29.7,26.1,00.0,38.9,30.9,23.7,0000.0,0003.59,0002.44,0001.99
2021-08-20 03:06:00,,0824.4,5.00,0.00,29.6,26.3,00.0,38.8,30.9,23.6,0000.0,0003.66,0002.47,0002.01
2021-08-20 03:07:00,,0824.4,4.99,0.00,29.5,26.7,00.0,38.8,31.0,23.3,0000.0,0003.85,0002.56,0002.04
2021-08-20 03:08:00,,0824.4,4.99,0.00,29.5,27.0,00.0,38.7,31.0,23.7,0000.0,0003.90,0002.61,0002.07
2021-08-20 03:09:00,,0824.4,5.01,0.00,29.5,27.4,00.0,38.7,31.0,23.3,0000.0,0003.91,0002.64,0002.12
2021-08-20 03:10:00,,0824.4,4.99,0.00,29.5,27.6,00.0,38.7,31.1,23.2,0000.0,0003.74,0002.63,0002.13
2021-08-20 03:11:00,,0824.4,5.02,0.00,29.5,27.8,00.0,38.7,31.2,23.5,0000.0,0003.76,0002.65,0002.15
2021-08-20 03:12:00,,0824.4,4.99,0.00,29.5,28.0,00.0,38.7,31.2,23.8,0000.0,0003.69,0002.65,0002.17
2021-08-20 03:13:00,,0824.6,5.00,0.00,29.5,28.1,00.0,38.7,31.3,24.3,0000.0,0003.77,0002.67,0002.18
2021-08-20 03:14:00,,0824.6,5.01,0.00,29.6,28.2,00.0,38.7,31.3,23.8,0000.0,0003.75,0002.66,0002.16
2021-08-20 03:15:00,,0824.5,5.00,0.00,29.6,28.3,00.0,38.7,31.4,24.0,0000.0,0003.74,0002.65,0002.15
2021-08-20 03:16:00,,0824.6,4.99,0.00,29.6,28.4,00.0,38.7,31.4,24.2,0000.0,0003.70,0002.63,0002.14
2021-08-20 03:17:00,,0824.6,5.00,0.00,29.7,28.5,00.0,38.7,31.5,23.9,0000.0,0003.66,0002.62,0002.12
2021-08-20 03:18:00,,0824.6,5.00,0.00,29.7,28.6,00.0,38.7,31.5,24.5,0000.0,0003.73,0002.53,0002.09
2021-08-20 03:19:00,,0824.6,5.00,0.00,29.7,28.7,00.0,38.7,31.5,25.3,0000.0,0003.85,0002.47,0002.07
2021-08-20 03:20:00,,0824.6,5.00,0.00,29.8,28.7,00.0,38.8,31.6,25.5,0000.0,0003.97,0002.48,0002.05
2021-08-20 03:21:00,,0824.6,4.99,0.00,29.8,28.8,00.0,38.8,31.6,25.9,0000.0,0004.09,0002.52,0002.04
2021-08-20 03:22:00,,0824.6,5.00,0.00,29.8,28.9,00.0,38.8,31.7,25.1,0000.0,0003.92,0002.48,0002.03
2021-08-20 03:23:00,,0824.7,5.00,0.00,29.8,28.9,00.0,38.8,31.7,24.6,0000.0,0003.92,0002.49,0002.05
2021-08-20 03:24:00,,0824.5,5.00,0.00,29.9,28.9,00.0,38.9,31.8,24.1,0000.0,0003.81,0002.47,0002.07
2021-08-20 03:25:00,,0824.4,5.00,0.00,29.9,29.0,00.0,38.9,31.8,24.7,0000.0,0003.73,0002.45,0002.09
2021-08-20 03:26:00,,0824.5,4.99,0.00,29.9,29.0,00.0,38.9,31.7,24.4,0000.0,0003.69,0002.44,0002.11
2021-08-20 03:27:00,,0824.5,5.01,0.00,29.9,27.6,00.0,38.9,31.3,23.6,0000.0,0003.81,0002.47,0002.12
2021-08-20 03:28:00,,0824.4,5.00,0.00,29.7,26.3,00.0,38.9,31.0,23.4,0000.0,0003.61,0002.40,0002.11
2021-08-20 03:29:00,,0824.3,5.00,0.00,29.6,26.2,00.0,38.8,31.0,24.0,0000.0,0003.31,0002.39,0002.10
2021-08-20 03:30:00,,0824.4,4.99,0.00,29.5,26.6,00.0,38.8,31.0,23.8,0000.0,0003.03,0002.35,0002.07
2021-08-20 03:31:00,,0824.3,5.00,0.00,29.5,27.0,00.0,38.8,31.1,23.3,0000.0,0003.09,0002.27,0002.02
2021-08-20 03:32:00,,0824.3,5.00,0.00,29.5,27.3,00.0,38.7,31.2,23.9,0000.0,0003.62,0002.17,0001.96
2021-08-20 03:33:00,,0824.3,5.01,0.00,29.5,27.6,00.0,38.7,31.2,24.0,0000.0,0003.67,0002.14,0001.92
2021-08-20 03:34:00,,0824.4,4.99,0.00,29.5,27.9,00.0,38.7,31.2,23.8,0000.0,0004.03,0002.11,0001.86
2021-08-20 03:35:00,,0824.4,5.01,0.00,29.5,28.1,00.0,38.7,31.3,23.4,0000.0,0004.10,0002.04,0001.79
2021-08-20 03:36:00,,0824.5,4.99,0.00,29.5,28.2,00.0,38.7,31.3,23.6,0000.0,0004.14,0002.03,0001.74
2021-08-20 03:37:00,,0824.5,5.00,0.00,29.6,28.3,00.0,38.7,31.4,22.8,0000.0,0004.12,0001.98,0001.67
2021-08-20 03:38:00,,0824.4,5.00,0.00,29.6,28.4,00.0,38.7,31.4,22.7,0000.0,0004.01,0001.87,0001.58
2021-08-20 03:39:00,,0824.5,5.01,0.00,29.6,28.5,00.0,38.7,31.4,22.8,0000.0,0004.53,0001.83,0001.51
2021-08-20 03:40:00,,0824.4,5.00,0.00,29.6,28.6,00.0,38.7,31.5,23.2,0000.0,0004.63,0001.83,0001.45
2021-08-20 03:41:00,,0824.4,5.00,0.00,29.7,28.6,00.0,38.7,31.5,23.0,0000.0,0004.55,0001.76,0001.40
2021-08-20 03:42:00,,0824.5,5.00,0.00,29.7,28.7,00.0,38.7,31.5,22.5,0000.0,0004.38,0001.73,0001.37
2021-08-20 03:43:00,,0824.5,4.99,0.00,29.7,28.7,00.0,38.7,31.5,22.5,0000.0,0003.63,0001.72,0001.33
2021-08-20 03:44:00,,0824.5,5.01,0.00,29.7,28.8,00.0,38.8,31.6,22.5,0000.0,0003.59,0001.70,0001.30
2021-08-20 03:45:00,,0824.4,5.00,0.00,29.8,28.8,00.0,38.8,31.6,22.4,0000.0,0003.14,0001.64,0001.27
2021-08-20 03:46:00,,0824.4,5.00,0.00,29.8,28.9,00.0,38.8,31.6,22.9,0000.0,0002.89,0001.59,0001.24
2021-08-20 03:47:00,,0824.5,5.00,0.00,29.8,28.9,00.0,38.8,31.7,22.8,0000.0,0002.79,0001.52,0001.21
2021-08-20 03:48:00,,0824.5,5.00,0.00,29.8,28.9,00.0,38.8,31.7,22.7,0000.0,0002.82,0001.52,0001.20
2021-08-20 03:49:00,,0824.4,4.99,0.00,29.9,28.9,00.0,38.9,31.7,22.6,0000.0,0002.77,0001.51,0001.20
2021-08-20 03:50:00,,0824.5,5.01,0.00,29.9,29.0,00.0,38.9,31.7,22.8,0000.0,0002.47,0001.47,0001.20
2021-08-20 03:51:00,,0824.4,4.99,0.00,29.9,29.0,00.0,38.9,31.7,22.5,0000.0,0002.46,0001.41,0001.18
2021-08-20 03:52:00,,0824.4,5.00,0.00,29.9,29.0,00.0,38.9,31.8,22.5,0000.0,0002.46,0001.40,0001.17
2021-08-20 03:53:00,,0824.4,5.01,0.00,29.9,28.7,00.0,38.9,31.7,22.5,0000.0,0002.43,0001.39,0001.17
2021-08-20 03:54:00,,0824.4,4.99,0.00,29.8,26.9,00.0,38.9,31.2,22.3,0000.0,0002.29,0001.35,0001.17
2021-08-20 03:55:00,,0824.4,5.00,0.00,29.7,26.1,00.0,38.9,31.0,22.5,0000.0,0002.14,0001.29,0001.15
2021-08-20 03:56:00,,0824.3,5.01,0.00,29.6,26.3,00.0,38.9,31.0,23.0,0000.0,0002.12,0001.26,0001.12
2021-08-20 03:57:00,,0824.3,5.00,0.00,29.5,26.7,00.0,38.8,31.1,23.2,0000.0,0002.24,0001.29,0001.11
2021-08-20 03:58:00,,0824.3,4.99,0.00,29.5,27.1,00.0,38.8,31.1,22.8,0000.0,0003.20,0001.28,0001.09
2021-08-20 03:59:00,,0824.3,5.01,0.00,29.5,27.4,00.0,38.7,31.2,23.1,0000.0,0003.73,0001.24,0001.07
